Regional Weather Roundup
Issued by NWS

Home | Current Version | Previous Version | Graphics & Text | Print | Product List | Glossary On
Versions: 1 2 3 4 5 6 7 8 9 10 11 12 13 14 15 16 17 18 19 20 21 22 23 24 25 26 27 28 29 30 31 32 33 34 35 36 37 38 39 40 41 42 43 44 45 46 47 48 49 50
000
ASUS43 KBIS 300710
RWRND

NORTH DAKOTA REGIONAL WEATHER ROUNDUP
NATIONAL WEATHER SERVICE BISMARCK ND
200 AM CDT FRI SEP 30 2016

NOTE: "FAIR" INDICATES FEW OR NO CLOUDS BELOW 12,000 FEET WITH NO
SIGNIFICANT WEATHER AND/OR OBSTRUCTIONS TO VISIBILITY.


NDZ001>003-009>011-017-300800-
NORTHWEST NORTH DAKOTA

CITY           SKY/WX    TMP DP  RH WIND       PRES   REMARKS
WILLISTON      CLOUDY    62  42  47 SE9       30.09F
MINOT          CLEAR     50  46  86 SE8       30.20F
MINOT AFB      CLEAR     47  44  91 SE10      30.19F
$$

NDZ018>021-031>035-040>046-300800-
SOUTHWEST NORTH DAKOTA

CITY           SKY/WX    TMP DP  RH WIND       PRES   REMARKS
BISMARCK       PTCLDY    51  45  79 SE12      30.23F
DICKINSON      CLOUDY    55  42  61 SE15      30.09F
GARRISON         N/A     54  46  74 SE12      30.19F
HETTINGER ARPT CLOUDY    57  42  57 SE14      30.13F
$$

NDZ004>008-012>016-024-026-027-054-300800-
NORTHEAST NORTH DAKOTA

CITY           SKY/WX    TMP DP  RH WIND       PRES   REMARKS
GRAND FORKS    PTCLDY    47  43  86 SE7       30.36S
GRND FRKS AFB  CLEAR     45  42  90 S6        30.35F
DEVILS LAKE    CLEAR     52  47  83 SE13      30.32S
$$

NDZ022-023-025-028>030-036>039-047>053-300800-
SOUTHEAST NORTH DAKOTA

CITY           SKY/WX    TMP DP  RH WIND       PRES   REMARKS
FARGO          CLEAR     50  45  83 SE8       30.36F
JAMESTOWN      CLEAR     47  44  90 SE7       30.31F
$$





USA.gov is the U.S. government's official web portal to all federal, state and local government web resources and services.